Regional Weather Roundup
Issued by NWS

Home | Current Version | Previous Version | Graphics & Text | Print | Product List | Glossary On
Versions: 1 2 3 4 5 6 7 8 9 10 11 12 13 14 15 16 17 18 19 20 21 22 23 24 25 26 27 28 29 30 31 32 33 34 35 36 37 38 39 40 41 42 43 44 45 46 47 48 49 50
000
ASUS44 KMEG 020000
RWRTN
TENNESSEE HOURLY STATE WEATHER ROUNDUP
NATIONAL WEATHER SERVICE MEMPHIS TN
700 PM CDT MON JUN 01 2015

TNZ002-004-019-021-049-052-054-088>092-020100-
WEST TENNESSEE

CITY           SKY/WX    TMP DP  RH WIND       PRES   REMARKS
MEMPHIS INTL   PTSUNNY   71  59  65 N10       30.07S
NWS MEMPHIS      N/A     70 N/A N/A MISG        N/A
JACKSON        CLOUDY    70  61  73 N3        30.06S
DYERSBURG      CLOUDY    66  48  52 NW8       30.09R
PARIS          CLOUDY    63  59  88 N5        30.08S
LEXINGTON      CLOUDY    66  63  88 NW3       30.06R
$$

TNZ008-025-027-028-033-062-065-066-020100-
NORTH MIDDLE TENNESSEE

CITY           SKY/WX    TMP DP  RH WIND       PRES   REMARKS
NASHVILLE      CLOUDY    65  63  93 N8        30.06S FOG
CLARKSVILLE    CLOUDY    64  59  83 N8        30.07R
COOKEVILLE     PTCLDY    70  66  88 NW3       30.03R
CROSSVILLE     MOCLDY    72  60  66 W7        30.06R
$$

TNZ061-075-076-078-094-096-097-020100-
SOUTH MIDDLE TENNESSEE

CITY           SKY/WX    TMP DP  RH WIND       PRES   REMARKS
FAYETTEVILLE   MOCLDY   N/A N/A N/A MISG      30.03S
TULLAHOMA      MOCLDY    70  64  83 NW6       30.05R
WINCHESTER     CLEAR     68  61  77 W3        30.04S
MCMINNVILLE    PTCLDY    68  68 100 W7        30.04R
COLUMBIA       CLOUDY    68  64  88 CALM      30.04R
SHELBYVILLE    CLOUDY    70  66  88 NW8       30.05R
$$

TNZ017-018-042-046-047-020100-
NORTHEAST TENNESSEE

CITY           SKY/WX    TMP DP  RH WIND       PRES   REMARKS
TRI CITIES     CLOUDY    65  63  93 E3        30.06S
ELIZABETHTON   CLOUDY    66  63  88 VRB7      30.08R
$$

TNZ012-013-036-069-073-074-020100-
CENTRAL EAST TENNESSEE

CITY           SKY/WX    TMP DP  RH WIND       PRES   REMARKS
KNOXVILLE      CLOUDY    72  54  53 NW8G22    30.02R
OAK RIDGE      LGT RAIN  67  64  90 CALM      30.03R
GATLINBURG     MOCLDY    73  61  64 VRB7      30.02R
$$

TNZ083-085-099-020100-
SOUTHEAST TENNESSEE

CITY           SKY/WX    TMP DP  RH WIND       PRES   REMARKS
CHATTANOOGA    MOCLDY    78  66  66 S5        30.00R
$$

SKY/WX REPORTED AS FAIR MEANS FEW OR NO CLOUDS BELOW
12 THOUSAND FEET.



USA.gov is the U.S. government's official web portal to all federal, state and local government web resources and services.